Location: Colebrook
(42.0017°N, 73.0973°W)
Time: 07:41:40
(UTC-04:00)

ISS - Pass Details

Date: 01 October 2021
Orbit: 417 x 423 km, 51.6° (Epoch: 16 October)

Event Time Altitude Azimuth Distance (km) Brightness Sun altitude
Rises 20:28:12 0° 305° (NW) 2,365 1.3 -22.0°
Reaches altitude 10° 20:30:18 10° 308° (NW) 1,500 0.0 -22.3°
Enters shadow 20:32:48 45° 324° (NW) 578 -2.8 -22.8°
